Kinston, NC

9:26 AM EST on February 12, 2016 (GMT -0500)
Kinston Regional Jetport / Stallings Field

Weather History for KISO - October, 2011

Change the Weather History Date:

Sunday, October 2, 2011

  Actual Average Record
Temperature  
Mean Temperature 53 °F -  
Max Temperature 62 °F 76 °F 95 °F (1986)
Min Temperature 44 °F 57 °F 39 °F (1992)
Degree Days  
Heating Degree Days 12    
Growing Degree Days 3 (Base 50)    
Moisture  
Dew Point 42 °F    
Average Humidity 78    
Maximum Humidity 93    
Minimum Humidity 34    
Precipitation  
Precipitation 0.00 in - - ()
Sea Level Pressure  
Sea Level Pressure 29.98 in    
Wind  
Wind Speed 4 mph (WSW)    
Max Wind Speed 12 mph    
Max Gust Speed 17 mph    
Visibility 10 miles    
Events      
Averages and records for this station are not official NWS values.
T = Trace of Precipitation, MM = Missing Value Source: NWS Daily Summary

Daily Weather History Graph

Daily Weather History Graph

Search for Another Location

Airport or City:

Trip Planner

Search our weather history database for the weather conditions in past years. The results will help you decide how hot, cold, wet, or windy it might be!

Date:

Astronomy

Oct. 02, 2011 Rise Set
Actual Time 7:05 AM EDT 6:53 PM EDT
Civil Twilight 6:40 AM EDT 7:18 PM EDT
Nautical Twilight 6:11 AM EDT 7:48 PM EDT
Astronomical Twilight 5:41 AM EDT 8:17 PM EDT
Moon 12:58 PM EDT (10/2) 11:01 PM EDT (10/2)
Length of Visible Light 12h 38m
Length of Day
11h 47m
Waxing Crescent, 34% of the Moon is Illuminated
Oct 2
Waxing Crescent
Oct 3
First Quarter
Oct 11
Full
Oct 19
Last Quarter
Oct 26
New

Hourly Weather History & Observations

Time (EDT) Temp. Windchill Dew Point Humidity Pressure Visibility Wind Dir Wind Speed Gust Speed Precip Events Conditions
12:15 AM 48.2 °F - 41.0 °F 76% 29.94 in 10.0 mi WSW 3.5 mph - N/A   Clear
12:35 AM 46.4 °F 44.3 °F 41.0 °F 81% 29.94 in 10.0 mi WSW 4.6 mph - N/A   Clear
12:55 AM 46.4 °F 45.2 °F 41.0 °F 81% 29.94 in 10.0 mi WSW 3.5 mph - N/A   Clear
1:15 AM 46.4 °F 45.2 °F 41.0 °F 81% 29.94 in 10.0 mi WSW 3.5 mph - N/A   Clear
1:55 AM 44.6 °F - 41.0 °F 87% 29.94 in 10.0 mi Calm Calm - N/A   Clear
2:15 AM 46.4 °F 44.3 °F 41.0 °F 81% 29.94 in 10.0 mi WSW 4.6 mph - N/A   Clear
2:35 AM 46.4 °F 45.2 °F 41.0 °F 81% 29.93 in 10.0 mi WSW 3.5 mph - N/A   Clear
3:15 AM 46.4 °F 45.2 °F 41.0 °F 81% 29.92 in 10.0 mi West 3.5 mph - N/A   Clear
3:35 AM 46.4 °F 45.2 °F 41.0 °F 81% 29.93 in 10.0 mi WSW 3.5 mph - N/A   Clear
3:55 AM 44.6 °F 42.2 °F 41.0 °F 87% 29.93 in 10.0 mi WSW 4.6 mph - N/A   Clear
4:15 AM 44.6 °F 42.2 °F 41.0 °F 87% 29.92 in 10.0 mi WSW 4.6 mph - N/A   Clear
4:35 AM 44.6 °F 42.2 °F 41.0 °F 87% 29.93 in 10.0 mi WSW 4.6 mph - N/A   Clear
4:55 AM 44.6 °F 41.4 °F 41.0 °F 87% 29.93 in 10.0 mi WSW 5.8 mph - N/A   Clear
5:15 AM 44.6 °F 42.2 °F 41.0 °F 87% 29.93 in 10.0 mi WSW 4.6 mph - N/A   Clear
5:35 AM 44.6 °F 42.2 °F 41.0 °F 87% 29.94 in 10.0 mi WSW 4.6 mph - N/A   Clear
5:55 AM 44.6 °F 41.4 °F 41.0 °F 87% 29.94 in 10.0 mi WSW 5.8 mph - N/A   Clear
6:15 AM 44.6 °F 41.4 °F 41.0 °F 87% 29.94 in 10.0 mi WSW 5.8 mph - N/A   Clear
6:55 AM 44.6 °F 41.4 °F 41.0 °F 87% 29.95 in 10.0 mi WSW 5.8 mph - N/A   Clear
6:56 AM 44.6 °F 41.4 °F 41.0 °F 87% 29.95 in 10.0 mi WSW 5.8 mph - N/A   Clear
7:56 AM 46.4 °F 43.5 °F 42.8 °F 87% 29.96 in 10.0 mi West 5.8 mph - N/A   Clear
8:56 AM 51.8 °F - 44.6 °F 76% 29.97 in 10.0 mi West 9.2 mph - N/A   Clear
9:56 AM 57.2 °F - 42.8 °F 59% 29.98 in 10.0 mi WNW 8.1 mph - N/A   Clear
11:56 AM 59.0 °F - 41.0 °F 51% 29.98 in 10.0 mi WNW 5.8 mph 17.3 mph N/A   Scattered Clouds
1:56 PM 60.8 °F - 37.4 °F 42% 29.96 in 10.0 mi West 11.5 mph - N/A   Scattered Clouds
3:56 PM 62.6 °F - 33.8 °F 34% 29.96 in 10.0 mi WNW 11.5 mph - N/A   Scattered Clouds
5:56 PM 60.8 °F - 35.6 °F 39% 29.99 in 10.0 mi WNW 6.9 mph - N/A   Clear
6:56 PM 57.2 °F - 37.4 °F 48% 30.01 in 10.0 mi WNW 3.5 mph - N/A   Clear
7:56 PM 48.2 °F - 44.6 °F 87% 30.02 in 10.0 mi Calm Calm - N/A   Scattered Clouds
8:56 PM 48.2 °F - 46.4 °F 93% 30.04 in 10.0 mi Calm Calm - N/A   Mostly Cloudy
9:15 PM 50.0 °F - 46.4 °F 87% 30.04 in 10.0 mi Calm Calm - N/A   Overcast
9:35 PM 51.8 °F - 44.6 °F 76% 30.05 in 10.0 mi Calm Calm - N/A   Overcast
9:55 PM 50.0 °F - 46.4 °F 87% 30.06 in 10.0 mi Calm Calm - N/A   Overcast
10:15 PM 51.8 °F - 46.4 °F 82% 30.06 in 10.0 mi Calm Calm - N/A   Overcast
10:35 PM 51.8 °F - 48.2 °F 88% 30.06 in 10.0 mi Calm Calm - N/A   Overcast
10:55 PM 51.8 °F - 46.4 °F 82% 30.05 in 10.0 mi Calm Calm - N/A   Overcast
11:15 PM 50.0 °F - 46.4 °F 87% 30.06 in 10.0 mi Calm Calm - N/A   Overcast
11:35 PM 50.0 °F - 46.4 °F 87% 30.06 in 10.0 mi Calm Calm - N/A   Overcast
11:55 PM 51.8 °F - 46.4 °F 82% 30.06 in 10.0 mi Calm Calm - N/A   Overcast